Probability
3 3 3 3 3 0 0 0 0 0 0 0 0 0 0 0 0 0 0 0 0 0 0 0 0 0 3 3 3 3 3 3 3 3 3 3 3 3
3 3 3 3 3 3 3 3 0 0 0 0 0 0 0 0 0 0 0 0 0 0 0 0 0 0 0 0 0 0 0 0 3 3 3 0 0 0
3 3 3 3 0 0 0 0 3 0 0 0 0 0 0 0 0 0 0 0 0 0 0 0 0 0 0 0 0 0 0 0 0 0 0 0 0 0
0 0 0 0 0 0 0 0 0 3 0 0 0 0 0 0 0 0 0 0 0 0 0 0 0 0 0 0 0 0 0 0 0 0 0 0 0 0
0 0 0 0 0 0 0 0 0 0 0 0 0 0 0 0 0 0 0 0 0 0 0 0 0 0 0 0 0 0 0 0 0 0 0 0 0 0
3 0 0 0 0 0 0 0 0 0 0 0 0 0 0 0 0 0 0 0 0 0 0 0 0 0 0 0 0 0 0 0 0 0 0 0 0 0
3 0 0 0 0 0 0 0 0 0 0 0 0 0 0 0 0 0 0 0 0 0 0 0 0 0 0 0 0 0 0 0 0 0 0 0 0 0
3 3 0 0 0 0 0 0 0 0 0 0 0 0 0 0 0 0 0 0 0 0 0 0 0 0 0 0 0 0 0 0 0 0 0 0 0 0
3 3 0 0 0 0 0 0 0 0 0 0 0 0 0 0 0 0 0 0 0 0 0 0 0 0 0 0 0 0 0 0 0 0 0 0 0 0
3 0 0 0 0 0 0 0 0 0 0 0 0 0 0 0 0 0 0 0 0 0 0 0 0 0 0 0 0 0 0 0 0 0 0 0 0 0
0 0 0 0 0 0 0 0 0 0 0 0 0 0 0 0 0 0 0 0 0 0 0 0 0 0 0 0 0 0 0 0 0 0 0 0 0 0
0 0 0 0 0 0 0 0 0 0 0 0 0 0 0 0 0 0 0 0 0 0 0 0 0 0 0 0 0 0 0 0 0 0 0 0 0 0
0 0 0 0 0 0 0 0 0 0 0 0 0 0 0 0 0 0 0 0 0 0 0 0 0 0 0 0 0 0 0 0 0 0 0 0 0 0
0 0 0 0 0 0 0 0 0 0 0 0 0 0 0 0 0 0 0 0 0 0 0 0 0 0 0 0 0 0 0 0 0 0 0 0 0 0
0 0 0 0 0 0 0 0 0 0 0 0 0 0 0 0 0 0 0 0 0 0 0 0 0 0 0 0 0 0 0 0 0 0 0 0 0 0
0 0 0 0 0 0 0 0 0 0 0 0 0 0 0 0 0 0 0 0 0 0 0 0 0 0 0 0 0 0 0 0 0 0 0 0 0 0
0 0 0 0 0 0 0 0 0 0 0 0 0 0 0 0 0 0 0 0 0 0 0 0 0 0 0 0 0 0 0 0 0 0 0 0 0 0
0 0 0 0 0 0 0 0 0 0 0 0 0 0 0 0 0 0 0 0 0 0 0 0 0 0 0 0 0 0 0 0 0 0 0 0 0 0
0 0 0 0 0 0 0 0 0 0 0 0 0 0 0 0 0 0 0 0 0 0 0 0 0 0 0 0 0 0 0 0 0 0 0 0 0 0
0 0 0 0 0 0 0 0 0 0 0 0 0 0 0 0 0 0 0 0 0 0 0 0 0 0 0 0 0 0 0 0 0 0 0 0 0 0
0 0 0 0 0 0 0 0 0 0 0 0 0 0 0 0 0 0 0 0 0 0 0 0 0 0 0 0 0 0 0 0 0 0 0 0 0 0
0 0 0 0 0 0 0 0 0 0 0 0 0 0 0 0 0 0 0 0 0 0 0 0 0 0 0 0 0 0 0 0 0 0 0 0 0 0
0 0 0 0 0 0 0 0 0 0 0 0 0 0 0 0 0 0 0 0 0 0 0 0 0 0 0 0 0 0 0 0 0 0 0 0 0 0
Height
5806 5805 5804 5803 5803 5802 5802 5803 5803 5803 5803 5803 5803 5803 5803 5803 5804 5804 5804 5804 5804 5804 5804 5804 5804 5804 5805 5805 5805 5805 5805 5806 5806 5806 5807 5807 5808 5809
5800 5800 5799 5798 5797 5797 5797 5797 5797 5797 5798 5798 5797 5797 5797 5798 5798 5798 5798 5798 5798 5798 5798 5797 5797 5797 5798 5798 5798 5798 5798 5799 5799 5799 5799 5800 5801 5801
5795 5794 5794 5793 5792 5792 5791 5791 5791 5792 5792 5793 5792 5792 5792 5792 5792 5792 5792 5792 5792 5792 5791 5791 5790 5790 5790 5790 5790 5791 5791 5791 5791 5792 5792 5793 5793 5794
5789 5789 5788 5788 5787 5787 5786 5786 5786 5786 5787 5787 5786 5786 5786 5786 5786 5786 5786 5786 5786 5785 5785 5784 5784 5783 5783 5783 5783 5783 5783 5783 5783 5784 5784 5785 5785 5786
5784 5783 5783 5783 5782 5782 5781 5780 5780 5780 5780 5781 5781 5780 5780 5780 5780 5780 5780 5780 5779 5778 5778 5777 5776 5776 5775 5775 5775 5775 5775 5775 5776 5776 5776 5776 5777 5777
5778 5778 5777 5777 5777 5776 5776 5775 5775 5775 5775 5775 5775 5775 5775 5774 5774 5773 5773 5773 5772 5771 5771 5770 5769 5769 5768 5767 5767 5767 5767 5767 5767 5767 5767 5768 5768 5768
5772 5772 5771 5771 5771 5771 5770 5769 5769 5769 5769 5769 5769 5769 5768 5767 5767 5766 5766 5766 5765 5764 5763 5763 5762 5761 5760 5760 5759 5759 5759 5759 5759 5759 5759 5759 5759 5759
5766 5766 5765 5765 5765 5764 5764 5763 5763 5763 5763 5763 5763 5762 5761 5760 5760 5759 5759 5759 5759 5758 5756 5756 5755 5754 5753 5752 5752 5751 5751 5751 5751 5751 5750 5750 5750 5750
5760 5760 5759 5759 5758 5758 5757 5757 5756 5756 5756 5756 5756 5755 5755 5754 5753 5752 5751 5751 5751 5749 5748 5748 5747 5746 5745 5744 5744 5743 5743 5743 5743 5742 5742 5742 5741 5741
5754 5754 5753 5752 5751 5751 5750 5750 5750 5749 5750 5750 5750 5749 5748 5747 5746 5745 5744 5744 5743 5742 5740 5740 5739 5738 5737 5736 5736 5735 5735 5734 5734 5734 5733 5733 5732 5732
5748 5747 5746 5746 5745 5744 5744 5743 5743 5743 5743 5743 5743 5742 5741 5740 5739 5738 5737 5736 5736 5735 5733 5732 5731 5730 5729 5729 5727 5726 5726 5725 5725 5724 5724 5723 5722 5722
5741 5740 5740 5739 5738 5737 5737 5737 5737 5737 5737 5736 5736 5735 5734 5733 5732 5731 5730 5728 5728 5727 5726 5724 5723 5721 5721 5720 5719 5718 5717 5716 5715 5715 5714 5713 5712 5712
5734 5733 5733 5732 5731 5730 5730 5730 5730 5730 5730 5729 5728 5727 5726 5725 5724 5723 5722 5721 5720 5719 5718 5716 5715 5713 5712 5711 5710 5708 5707 5706 5705 5704 5703 5703 5702 5701
5727 5727 5726 5725 5725 5724 5723 5723 5722 5722 5722 5721 5720 5720 5719 5718 5717 5716 5715 5714 5713 5711 5710 5708 5706 5705 5703 5702 5701 5700 5698 5697 5695 5694 5693 5692 5691 5691
5721 5720 5719 5719 5718 5717 5716 5715 5715 5714 5714 5714 5713 5712 5711 5710 5709 5709 5708 5707 5705 5704 5702 5700 5698 5697 5695 5693 5692 5691 5689 5688 5686 5685 5684 5682 5681 5681
5713 5713 5712 5712 5711 5710 5709 5708 5707 5707 5706 5706 5705 5705 5704 5703 5702 5702 5701 5699 5698 5697 5694 5692 5690 5689 5687 5685 5683 5682 5680 5679 5677 5676 5674 5673 5672 5671
5706 5706 5705 5705 5704 5703 5702 5701 5700 5700 5699 5699 5698 5698 5697 5696 5695 5694 5693 5692 5690 5689 5687 5685 5682 5680 5678 5677 5675 5673 5672 5670 5668 5667 5666 5665 5663 5662
5700 5699 5698 5698 5697 5696 5695 5694 5694 5693 5692 5692 5691 5690 5690 5689 5688 5687 5686 5685 5683 5681 5679 5677 5675 5673 5671 5668 5667 5665 5663 5661 5660 5658 5656 5655 5654 5653
5693 5692 5691 5691 5690 5689 5688 5688 5687 5686 5685 5685 5684 5683 5683 5682 5681 5680 5679 5677 5676 5674 5671 5669 5667 5665 5663 5662 5659 5657 5655 5653 5651 5649 5647 5646 5645 5643
5686 5685 5684 5684 5683 5683 5682 5681 5680 5680 5679 5678 5678 5677 5676 5675 5674 5673 5672 5670 5669 5667 5664 5662 5660 5657 5655 5654 5652 5649 5647 5645 5643 5640 5638 5637 5635 5634
5679 5678 5678 5677 5676 5676 5675 5675 5674 5673 5672 5672 5671 5670 5669 5669 5667 5666 5665 5663 5661 5660 5658 5655 5653 5650 5648 5646 5645 5642 5640 5637 5635 5632 5630 5628 5627 5625
5673 5671 5671 5671 5670 5669 5669 5668 5668 5667 5666 5665 5664 5663 5662 5661 5660 5659 5657 5656 5654 5653 5651 5649 5646 5644 5641 5639 5637 5635 5633 5630 5627 5624 5622 5620 5619 5617
5666 5666 5665 5665 5664 5663 5663 5662 5661 5661 5660 5659 5658 5657 5655 5654 5653 5652 5650 5649 5647 5645 5643 5642 5639 5636 5634 5632 5630 5627 5625 5622 5620 5617 5615 5613 5611 5609
Wind_Speed
18 18 18 17 17 18 18 18 18 18 18 18 19 20 20 20 20 19 19 19 19 20 20 21 22 23 23 22 22 23 24 24 24 24 25 25 25 26
19 19 18 17 16 17 17 18 18 18 18 18 19 20 21 21 20 21 20 20 20 20 21 22 23 23 24 24 24 24 25 25 25 25 26 26 27 27
19 19 18 18 18 17 17 18 18 18 18 19 19 20 20 20 21 22 22 22 21 21 21 22 22 24 25 25 26 26 26 27 26 26 27 27 27 28
18 18 18 18 18 18 18 18 19 19 19 19 19 19 20 20 21 21 22 22 23 22 22 22 23 23 24 25 26 27 27 27 27 27 27 27 28 29
18 18 18 18 18 18 19 19 19 19 19 19 20 20 20 21 21 22 22 23 23 23 23 23 24 24 25 25 26 26 27 27 27 27 28 29 30 30
18 18 18 19 19 19 19 19 19 19 19 19 19 20 21 22 22 23 23 24 24 24 24 25 25 25 26 26 27 27 26 25 26 27 28 29 31 32
18 18 19 19 19 19 20 20 20 20 20 20 20 21 22 23 23 23 23 24 24 24 25 26 26 26 26 27 26 26 26 26 26 26 27 28 30 31
18 18 19 20 21 20 20 20 20 20 20 20 21 21 22 22 22 22 23 24 25 25 26 26 26 26 26 26 26 26 26 26 26 26 27 28 28 29
18 19 19 20 20 21 21 21 21 20 20 20 20 20 21 22 22 23 24 24 24 25 26 26 27 26 26 26 26 26 26 26 27 27 28 29 30 30
20 20 21 21 21 22 22 21 21 20 21 21 21 21 21 22 22 23 23 23 23 24 25 25 25 26 26 26 27 27 27 27 28 28 29 30 30 30
21 22 22 21 21 22 22 21 21 21 21 22 22 22 22 23 23 23 23 24 24 23 24 25 25 26 27 27 27 28 28 29 29 30 31 31 31 32
21 22 22 21 21 21 21 21 22 22 23 23 23 23 23 23 23 23 24 24 24 24 25 25 26 27 27 27 28 28 29 29 30 31 32 32 32 32
21 21 21 22 21 21 21 22 23 24 25 25 25 24 23 23 24 24 24 24 24 24 25 25 26 26 27 27 28 29 30 30 30 31 32 32 32 33
21 21 20 21 21 22 22 22 23 24 25 25 25 24 24 24 25 25 24 25 25 25 26 26 26 26 26 26 27 28 29 29 30 29 30 30 31 31
21 21 21 21 21 22 22 22 23 23 24 24 24 24 24 24 24 24 24 24 25 25 26 26 26 26 26 26 27 27 28 29 29 29 29 29 30 31
20 21 21 21 22 21 22 23 23 23 23 23 23 23 23 23 23 23 23 24 24 25 25 26 26 26 26 26 27 27 27 28 28 29 28 28 28 29
20 21 22 22 22 21 21 21 21 22 22 22 22 22 22 22 23 23 23 23 24 24 25 25 26 26 26 26 26 26 26 26 27 27 28 28 29 29
20 21 21 21 21 20 20 20 20 21 21 22 22 22 22 22 22 23 23 23 23 24 24 25 25 25 25 26 26 26 26 27 27 28 28 28 28 28
20 20 20 20 20 21 21 20 20 21 21 21 21 21 21 22 22 23 23 23 23 23 24 24 25 25 24 24 25 26 26 26 26 27 27 27 28 29
20 19 19 20 20 21 21 20 20 20 20 20 20 20 21 22 22 22 23 23 23 23 23 24 24 24 24 24 24 25 25 26 26 26 27 27 27 28
19 19 19 20 20 20 20 20 20 20 20 19 20 21 21 22 22 22 22 22 23 23 23 23 24 24 24 24 24 24 25 26 26 25 26 26 26 26
19 19 19 19 19 20 19 19 19 19 20 20 20 20 21 21 21 22 22 23 23 23 23 23 24 24 24 24 24 24 25 26 26 25 25 24 24 24
19 19 19 19 19 20 20 19 19 20 20 20 20 21 21 21 22 22 22 23 23 23 22 22 23 23 24 24 24 24 25 25 25 25 25 24 24 24
Wind_Direction
272 271 270 269 268 267 264 263 262 260 258 260 261 260 261 260 261 263 264 264 265 266 267 265 264 263 263 265 266 265 263 263 261 262 259 257 255 255
272 269 267 268 269 267 263 261 261 262 260 262 263 262 263 261 262 262 262 262 264 266 267 268 267 265 265 267 266 266 263 263 262 261 258 257 256 256
271 269 269 270 270 270 267 266 264 263 263 264 266 264 261 260 261 262 263 263 264 265 268 270 269 268 268 268 266 265 264 262 262 261 260 259 257 257
271 270 270 272 272 272 268 270 268 265 264 264 265 264 262 261 261 265 265 265 265 266 267 270 272 270 270 269 266 264 264 263 261 261 260 260 260 259
273 271 271 270 270 271 273 273 268 265 263 264 266 264 264 265 264 265 266 266 266 267 269 271 274 272 270 267 267 267 266 263 262 262 263 262 261 261
274 271 270 269 269 270 273 274 270 265 263 265 265 266 268 268 269 269 269 269 269 271 272 273 275 274 271 268 268 268 266 266 265 264 264 263 263 263
272 272 272 271 269 271 273 275 274 268 265 265 266 268 271 271 271 271 269 268 270 272 272 273 274 274 272 269 268 269 268 269 268 266 264 264 264 263
272 273 273 272 270 271 273 273 273 270 267 267 267 269 272 272 271 271 272 271 270 271 272 272 273 273 272 272 271 270 269 268 268 267 267 267 267 265
271 272 273 274 273 272 273 272 271 269 267 269 271 273 272 271 270 271 273 274 273 271 271 272 272 272 273 273 271 269 268 268 267 267 268 268 267 266
271 272 275 276 275 274 272 271 270 267 267 269 271 273 275 276 274 274 275 275 276 276 275 276 275 274 274 272 271 269 268 268 268 268 268 270 268 267
273 275 276 276 274 272 271 269 269 268 268 270 272 274 275 275 276 276 276 276 277 277 277 277 276 275 273 272 271 270 270 270 270 269 268 268 268 267
276 276 275 274 274 272 269 268 269 269 270 272 274 275 274 274 276 277 278 277 278 277 278 278 277 277 275 273 271 271 272 273 272 271 270 270 269 267
275 276 275 274 273 272 270 271 271 270 271 273 275 275 273 273 275 277 278 278 279 280 280 281 280 280 279 275 272 272 274 275 275 274 273 272 270 268
276 276 275 274 271 272 274 275 272 270 271 272 273 272 273 274 274 276 277 278 281 282 282 283 282 282 281 277 275 274 275 276 277 276 276 274 272 269
276 277 277 277 275 274 274 274 272 271 271 272 271 271 273 274 273 274 276 279 282 283 283 284 283 283 282 280 279 277 277 277 277 277 277 275 274 271
278 277 277 277 276 276 274 272 272 273 273 272 271 272 273 274 274 275 278 279 281 282 283 283 283 283 283 282 281 280 279 279 278 278 278 277 275 274
277 277 275 276 278 278 277 275 273 273 273 272 271 272 273 275 275 276 279 281 283 284 284 283 283 282 282 282 281 281 281 281 281 280 278 278 277 276
277 276 277 277 277 278 278 278 276 277 276 273 272 271 273 275 275 276 278 281 284 286 286 286 285 283 281 281 281 281 283 283 282 281 280 279 279 279
277 276 275 275 275 276 278 279 278 279 278 276 273 272 272 274 275 277 279 282 284 286 287 288 288 286 284 281 282 283 285 285 284 281 280 281 280 280
278 276 274 274 274 274 275 276 276 278 278 277 275 275 274 276 278 280 282 283 285 287 290 292 291 290 287 283 283 285 286 287 285 284 282 281 282 283
278 276 276 274 273 273 274 274 275 277 278 277 277 278 278 280 282 284 284 285 286 288 291 292 293 292 288 286 286 287 288 289 289 288 286 285 284 284
278 277 276 273 272 273 274 274 275 277 278 278 279 280 281 282 284 285 285 286 286 287 290 293 294 293 291 290 289 288 288 288 289 289 288 287 287 286
278 276 276 273 272 274 275 277 279 279 280 280 280 281 280 281 282 283 285 286 287 289 289 292 294 293 294 293 291 291 290 290 288 287 287 286 286 286